"Pseudo-MPEC" for P115PYq

Created 2020 Sep 19 6:07:20 UT using Find_Orb

Click here for an explanation of pseudo-MPECs

 
 Astrometry: 
     P115PYq  C2020 09 13D=/c9W%Wj!tHS\QxjG5GtY=bd+6NT8cGICI3K,.s_DJ84rM[F`S.F51
     P115PYq  C2020 09 13$^d;gdoAstrometry%(N%fT8k:dDil2a?redacted;Ha%!p)94DSF51
     P115PYq  C2020 09 13m_5dg:*A,u\-_6+N(i!fQZA!c45b;h/T#sBqW=$RS1lCpt%4To:OF51
     P115PYq  C2020 09 13JXd9tY\)3_W/14M5AZ3$p-]_%dmNXCx6-80ft:S3KcD9jYZJ3m(*F51
     P115PYq  C2020 09 13UfC4*6cbYaS@Sc,'W:;(#9BGMK`J.DYtgmXXVtkrMclick2K7r-HF51
     P115PYq  C2020 09 132HQi;s6hO)SJMfxoZhere0'j*r2*B#WOKiQ3lO#5Y?2iEygn3wuWF51
     P115PYq  C2020 09 13\ntHRK/EPSv-@h\C#oforcu(,A[NiH%eexplanation%a3S/eI4OF51

Station data:
(F51) Pan-STARRS 1, Haleakala  (N20.707235 W156.255910)  US/Hawaii.
   Observers N. Primak, A. Schultz, S. Watters, J. Thiel, T. Goggia. Measurer
   PS1 Science Consortium. 1.8-m Ritchey-Chrétien + CCD.

Orbital elements:  P115PYq
   Perihelion 2020 Aug 11.621005 +/- 45.4 TT = 14:54:14 (JD 2459073.121005)
Epoch 2020 Sep 13.0 TT = JDT 2459105.5   Earth MOID: 0.2273   Ma: 0.0242
M   9.04577314 +/- 22               (J2000 ecliptic)          AutoNEOCP
n   0.27937164 +/- 0.274            Peri.  161.91564 +/- 70
a   2.31747199 +/- 1.53             Node   165.87691 +/- 48
e   0.4657306 +/- 0.247             Incl.    3.40585 +/- 2.8
P   3.53                   H 23.3   G  0.15   U 11.9  SR
q 1.23815429 +/- 0.458    Q 3.39678969 +/- 51.6
From 7 observations 2020 Sept. 13 (52.8 min); mean residual 0".08
Residuals in arcseconds: 
200913 F51  .16-  .05-    200913 F51  .18+  .06-    200913 F51  .08-  .03-    
200913 F51  .04-  .04+    200913 F51  .09+  .03+    
200913 F51  .09+  .04+    200913 F51  .07-  .01+    

Ephemerides (geocentric):
Date (UTC) HH   RA              Dec         delta   r     elong  mag " sig PA
---- -- -- --  -------------   -----------  ------ ------ -----  --- ---- ---
2020 09 19 06  00 49 52.631   +01 29 14.46  .30688 1.3023 164.0 22.0  43d   1
2020 09 19 07  00 49 53.550   +01 28 52.42  .30698 1.3024 164.1 22.0  43d   1
2020 09 19 08  00 49 54.466   +01 28 30.40  .30708 1.3026 164.1 22.0  43d   1
2020 09 19 09  00 49 55.378   +01 28 08.37  .30719 1.3027 164.2 22.0  43d   1
2020 09 19 10  00 49 56.285   +01 27 46.36  .30729 1.3028 164.2 22.0  43d   1
2020 09 19 11  00 49 57.189   +01 27 24.35  .30740 1.3030 164.2 22.0  43d   1
2020 09 19 12  00 49 58.089   +01 27 02.35  .30751 1.3031 164.3 22.0  43d   1
2020 09 19 13  00 49 58.985   +01 26 40.36  .30761 1.3032 164.3 22.0  43d   1
2020 09 19 14  00 49 59.877   +01 26 18.37  .30772 1.3034 164.3 22.0  43d   1
2020 09 19 15  00 50 00.766   +01 25 56.38  .30782 1.3035 164.4 22.0  43d   1
2020 09 19 16  00 50 01.650   +01 25 34.41  .30793 1.3036 164.4 22.0  44d   1
2020 09 19 17  00 50 02.531   +01 25 12.44  .30804 1.3038 164.4 22.0  44d   1
2020 09 19 18  00 50 03.407   +01 24 50.48  .30814 1.3039 164.5 22.0  44d   2
2020 09 19 19  00 50 04.280   +01 24 28.53  .30825 1.3040 164.5 22.0  44d   2
2020 09 19 20  00 50 05.149   +01 24 06.58  .30836 1.3042 164.6 22.0  44d   2
2020 09 19 21  00 50 06.015   +01 23 44.64  .30847 1.3043 164.6 22.0  44d   2
2020 09 19 22  00 50 06.876   +01 23 22.71  .30857 1.3044 164.6 22.0  45d   2
2020 09 19 23  00 50 07.734   +01 23 00.78  .30868 1.3046 164.7 22.0  45d   2
2020 09 20 00  00 50 08.588   +01 22 38.87  .30879 1.3047 164.7 22.0  45d   2
2020 09 20 01  00 50 09.438   +01 22 16.96  .30890 1.3049 164.7 22.0  46d   2
2020 09 20 02  00 50 10.284   +01 21 55.06  .30901 1.3050 164.8 22.0  46d   2
2020 09 20 03  00 50 11.127   +01 21 33.17  .30911 1.3051 164.8 22.0  46d   2
2020 09 20 04  00 50 11.966   +01 21 11.28  .30922 1.3053 164.9 22.0  47d   2
2020 09 20 05  00 50 12.801   +01 20 49.40  .30933 1.3054 164.9 22.0  47d   2
2020 09 20 06  00 50 13.633   +01 20 27.53  .30944 1.3055 164.9 22.0  47d   2
2020 09 20 07  00 50 14.461   +01 20 05.67  .30955 1.3057 165.0 22.0  47d   2
2020 09 20 08  00 50 15.285   +01 19 43.82  .30966 1.3058 165.0 22.0  47d   2
2020 09 20 09  00 50 16.105   +01 19 21.98  .30977 1.3059 165.0 22.0  48d   2
2020 09 20 10  00 50 16.922   +01 19 00.14  .30988 1.3061 165.1 22.0  48d   2
2020 09 20 11  00 50 17.735   +01 18 38.32  .30999 1.3062 165.1 22.0  48d   2
2020 09 20 12  00 50 18.544   +01 18 16.50  .31010 1.3063 165.1 22.0  48d   2
2020 09 20 13  00 50 19.350   +01 17 54.69  .31021 1.3065 165.2 22.0  48d   2
2020 09 20 14  00 50 20.152   +01 17 32.89  .31032 1.3066 165.2 22.0  49d   2
2020 09 20 15  00 50 20.951   +01 17 11.10  .31043 1.3067 165.3 22.0  49d   2
2020 09 20 16  00 50 21.746   +01 16 49.32  .31054 1.3069 165.3 22.0  49d   2
2020 09 20 17  00 50 22.537   +01 16 27.55  .31066 1.3070 165.3 22.0  49d   2
2020 09 20 18  00 50 23.325   +01 16 05.79  .31077 1.3072 165.4 22.0  49d   2
2020 09 20 19  00 50 24.109   +01 15 44.03  .31088 1.3073 165.4 22.0  49d   2
2020 09 20 20  00 50 24.889   +01 15 22.29  .31099 1.3074 165.4 22.0  50d   2
2020 09 20 21  00 50 25.666   +01 15 00.56  .31110 1.3076 165.5 22.0  50d   2
2020 09 20 22  00 50 26.440   +01 14 38.83  .31122 1.3077 165.5 22.0  50d   2
2020 09 20 23  00 50 27.210   +01 14 17.12  .31133 1.3078 165.6 22.0  50d   2
2020 09 21 00  00 50 27.976   +01 13 55.42  .31144 1.3080 165.6 22.0  50d   2
2020 09 21 01  00 50 28.739   +01 13 33.72  .31156 1.3081 165.6 22.0  50d   2
2020 09 21 02  00 50 29.498   +01 13 12.04  .31167 1.3083 165.7 22.0  50d   2
2020 09 21 03  00 50 30.254   +01 12 50.36  .31178 1.3084 165.7 22.0  50d   2
2020 09 21 04  00 50 31.006   +01 12 28.70  .31190 1.3085 165.7 22.0  50d   2
2020 09 21 05  00 50 31.755   +01 12 07.05  .31201 1.3087 165.8 22.0  50d   2